Location: De Lemmer
(52.8462°N, 5.7091°E)
Time: 11:21:58
(UTC+00:00)

Cosmos 858 Rocket - Pass Details

Date: 18 September 2020
Orbit: 756 x 774 km, 74.1° (Epoch: 30 October)

Event Time Altitude Azimuth Distance (km) Brightness Sun altitude
Rises 18:38:29 0° 193° (SSW) 3,219 7.7 -8.9°
Reaches altitude 10° 18:40:51 10° 191° (S) 2,295 6.9 -9.2°
Maximum altitude 18:46:00 64° 111° (ESE) 843 4.5 -10.0°
Drops below altitude 10° 18:51:09 10° 30° (NNE) 2,301 6.8 -10.7°
Sets 18:53:32 0° 28° (NNE) 3,229 7.6 -11.1°
